Weather History for Juneau, AK

Change the Weather History Date:

Tuesday, November 19, 2013

  Actual Average Record
Temperature  
Mean Temperature 11 °F 32 °F  
Max Temperature 14 °F 37 °F 49 °F (1993)
Min Temperature 8 °F 28 °F -3 °F (1966)
Degree Days  
Heating Degree Days 54 33  
Month to date heating degree days 649 580  
Since 1 July heating degree days 2092 2265  
Moisture  
Dew Point -1 °F    
Average Humidity 57    
Maximum Humidity 76    
Minimum Humidity 38    
Precipitation  
Precipitation 0.03 in 0.19 in 1.33 in (1979)
Month to date precipitation 2.21 3.79  
Year to date precipitation 60.74 54.23  
Snow  
Snow 0.10 in 0.60 in 6.90 in (2006)
Month to date snowfall 0.1 6.8  
Since 1 July snowfall 0.1 7.6  
Since 1 September snowfall 0.1 7.6  
Snow Depth 0.00 in    
Sea Level Pressure  
Sea Level Pressure 30.04 in    
Wind  
Wind Speed 8 mph (East)    
Max Wind Speed 18 mph    
Max Gust Speed 21 mph    
Visibility 7 miles    
Events Snow    
T = Trace of Precipitation, MM = Missing Value Source: NWS Daily Summary

Daily Weather History Graph

Daily Weather History Graph

Search for Another Location

Airport:

Trip Planner

Search our weather history database for the weather conditions in past years. The results will help you decide how hot, cold, wet, or windy it might be!

Date:

Astronomy

Nov. 19, 2013 Rise Set
Actual Time 7:56 AM AKST 3:30 PM AKST
Civil Twilight 7:09 AM AKST 4:17 PM AKST
Nautical Twilight 6:19 AM AKST 5:07 PM AKST
Astronomical Twilight 5:32 AM AKST 5:54 PM AKST
Moon 5:23 PM AKST (11/19) 9:46 AM AKST (11/19)
Length of Visible Light 9h 07m
Length of Day
7h 33m
Waning Gibbous, 95% of the Moon is Illuminated
Nov 19
Waning Gibbous
Nov 25
Last Quarter
Dec 2
New
Dec 9
First Quarter
Dec 17
Full

Hourly Weather History & Observations

Time (AKST) Temp. Windchill Dew Point Humidity Pressure Visibility Wind Dir Wind Speed Gust Speed Precip Events Conditions
12:53 AM 10.9 °F 1.4 °F -5.1 °F 49% 30.07 in 10.0 mi ENE 5.8 mph - N/A   Partly Cloudy
1:53 AM 10.0 °F 3.6 °F -6.0 °F 48% 30.07 in 10.0 mi East 3.5 mph - N/A   Partly Cloudy
3:53 AM 10.9 °F 1.4 °F -7.1 °F 44% 30.06 in 10.0 mi East 5.8 mph - N/A   Partly Cloudy
4:53 AM 10.0 °F 1.8 °F -8.0 °F 44% 30.06 in 10.0 mi East 4.6 mph - N/A   Partly Cloudy
5:53 AM 9.0 °F 2.4 °F -5.1 °F 53% 30.06 in 10.0 mi SE 3.5 mph - N/A   Partly Cloudy
6:53 AM 10.0 °F 3.6 °F -6.0 °F 48% 30.06 in 10.0 mi ENE 3.5 mph - N/A   Partly Cloudy
7:53 AM 10.0 °F 1.8 °F -5.1 °F 51% 30.06 in 10.0 mi Variable 4.6 mph - N/A   Mostly Cloudy
8:53 AM 12.0 °F 5.9 °F -8.0 °F 41% 30.07 in 10.0 mi Variable 3.5 mph - N/A   Mostly Cloudy
9:53 AM 12.9 °F 6.9 °F -9.0 °F 37% 30.07 in 10.0 mi Variable 3.5 mph - N/A   Mostly Cloudy
10:53 AM 12.9 °F -0.2 °F -9.0 °F 37% 30.06 in 10.0 mi SSE 10.4 mph - N/A   Overcast
11:53 AM 12.9 °F -2.2 °F -9.0 °F 37% 30.06 in 10.0 mi SE 13.8 mph - N/A   Overcast
12:53 PM 12.9 °F -2.2 °F -9.0 °F 37% 30.06 in 10.0 mi SE 13.8 mph - N/A   Overcast
1:53 PM 14.0 °F 1.2 °F -6.0 °F 41% 30.05 in 10.0 mi SE 10.4 mph - N/A   Overcast
2:53 PM 12.9 °F -1.6 °F -6.0 °F 43% 30.05 in 10.0 mi SE 12.7 mph - N/A   Overcast
3:53 PM 12.9 °F -1.6 °F -4.0 °F 47% 30.04 in 10.0 mi SE 12.7 mph - N/A   Overcast
4:53 PM 12.9 °F -0.2 °F -2.0 °F 51% 30.03 in 9.0 mi ESE 10.4 mph - 0.00 in Snow Light Snow
5:53 PM 12.0 °F -3.4 °F 1.0 °F 61% 30.03 in 6.0 mi SE 13.8 mph 20.7 mph 0.00 in Snow Light Snow
6:53 PM 12.9 °F 0.7 °F -0.9 °F 54% 30.03 in 9.0 mi SE 9.2 mph - 0.00 in Snow Light Snow
7:53 PM 12.0 °F -2.7 °F 5.0 °F 73% 30.02 in 1.5 mi SE 12.7 mph - 0.00 in Snow Light Snow
8:08 PM 12.0 °F 1.5 °F 3.9 °F 70% 30.01 in 3.0 mi ESE 6.9 mph - 0.00 in Snow Light Snow
8:53 PM 12.9 °F 0.7 °F 5.0 °F 71% 30.02 in 4.0 mi ESE 9.2 mph - 0.01 in Snow Light Snow
9:35 PM 12.0 °F -0.4 °F 6.1 °F 77% 30.01 in 2.0 mi ESE 9.2 mph - 0.00 in Snow Light Snow
9:53 PM 12.0 °F 2.7 °F 6.1 °F 77% 30.01 in 1.8 mi East 5.8 mph - 0.01 in Snow Light Snow
10:02 PM 12.0 °F 2.7 °F 7.0 °F 80% 30.01 in 2.0 mi NE 5.8 mph - 0.00 in Snow Light Snow
10:25 PM 12.9 °F 5.2 °F 7.0 °F 77% 30.01 in 6.0 mi NE 4.6 mph - 0.00 in Snow Light Snow
10:53 PM 14.0 °F 6.5 °F 5.0 °F 67% 30.01 in 9.0 mi NE 4.6 mph - 0.00 in Snow Light Snow
11:23 PM 14.0 °F 6.5 °F 5.0 °F 67% 30.00 in 9.0 mi NE 4.6 mph - 0.00 in Snow Light Snow
11:43 PM 14.0 °F 5.1 °F 6.1 °F 71% 30.00 in 2.0 mi ENE 5.8 mph - 0.00 in Snow Light Snow
11:51 PM 14.0 °F 5.1 °F 6.8 °F 73% 30.00 in 1.2 mi ENE 5.8 mph - 0.00 in Snow Light Snow
11:53 PM 14.0 °F 6.5 °F 7.0 °F 74% 30.00 in 1.2 mi ENE 4.6 mph - 0.00 in Snow Light Snow